Airfield :
LOGIN :

Register | Disclaimer

   EN    FR    IT 

 










Legend :    VFR   Marginal VFR   IFR   Intensive IFR   Very Intensive IFR
Visi :
Ceiling :
>= 8 km
>= 3000ft
5 to 8 km
1000 to 3000 ft
1500m to 5 km
500 to 1000 ft
800 to 1500m
200 to 500 ft
< 800m
< 200 ft
Symbols :   Thunderstorms  Fog  Heavy snow  Heavy precipitations  Wind > 20 kt
SIGMETs :     Misc.  Thunderstorms  Icing  Turbulence  Mountain Waves  Volcanic Ashes






- Airport Elevation : 36 ft
- IATA code : LTQ


LFAT - Le Touquet

CURRENT METAR :
  • 280530Z AUTO 06008KT 030V090 CAVOK 13/09 Q1034

EXPIRED METARs :
  • 280500Z AUTO 06005KT CAVOK 12/10 Q1034
  • 280430Z AUTO 02004KT 350V050 CAVOK 11/10 Q1034
  • 280400Z AUTO 04005KT 9000 FEW012 11/10 Q1034
  • 280330Z AUTO 05004KT 9999 BKN011 11/09 Q1034
  • 280300Z AUTO 06005KT 020V080 CAVOK 10/09 Q1034
  • 280230Z AUTO VRB01KT CAVOK 10/09 Q1034

Expired Forecast.
ATIS : +33 3 21 06 62 84



MET'MAP, your aeronautical weather chart ! - Copyright ORBIFLY December 2007 - Disclaimer

ORBIFLY MET'MAP TEAM :

Programming & Development : Alexandra Zaïnal
Concept & original design : Baudouin d'Aumeries
Assistance for programming : Marc-Olivier Méhu
Technical & hardware support : Manuel Goepfert

Contact : metmap@orbifly.com




SOURCES & CREDITS :

   NOAA